[[{"header":{"parameterUnit":"m.s-1","parameterCategory":1,"la1":30.2992,"la2":30.254,"lo1":-89.0895,"lo2":-89.0443,"dy":0.0025,"dx":0.0025,"nx":19,"ny":19,"refTime":"2026-05-20T21:00:00:Z","depth":0,"parameterNumber":2,"parameterNumberName":"U-component_of_WINDS"},"data":[0,0,0,-2.7379,-2.7381,-2.7494,-2.7494,-2.7634,-2.7635,0,0,0,0,0,0,0,0,0,0,0,-2.7342,-2.7342,-2.7379,-2.7382,-2.7494,-2.7494,-2.7634,-2.7635,0,0,0,0,0,0,0,0,0,0,0,-2.7341,-2.7342,-2.7343,-2.7382,-2.7494,-2.7494,-2.7634,-2.7551,0,0,0,0,0,0,0,0,0,0,-2.7442,-2.7403,-2.7342,-2.7343,-2.7383,-2.7494,-2.7495,-2.7547,-2.7556,-2.7581,0,-2.7601,0,-2.762,-2.7644,-2.7645,0,0,0,-2.7385,-2.7395,-2.743,-2.7343,-2.7384,-2.7493,-2.7444,-2.7552,-2.7562,-2.7593,-2.7603,-2.7608,-2.7623,-2.7645,-2.7646,-2.7778,-2.7778,0,0,-2.7379,-2.736,-2.7422,-2.7436,-2.7417,-2.7441,-2.7448,-2.7558,-2.7568,-2.7603,-2.7612,-2.7625,-2.7646,-2.7647,-2.7777,-2.7778,0,0,0,-2.7359,-2.7355,-2.7387,-2.743,-2.7451,-2.7444,-2.7452,-2.7563,-2.7575,-2.7613,-2.7627,-2.7647,-2.7648,-2.7777,-2.7777,-2.7779,0,0,0,-2.7355,-2.7343,-2.7384,-2.7373,-2.7448,-2.7508,-2.7454,-2.7567,-2.758,-2.7626,-2.7647,-2.765,-2.7776,-2.7777,-2.7778,-2.7783,0,0,0,-2.7336,-2.7341,-2.7356,-2.7372,-2.7419,-2.7506,-2.7525,-2.7571,-2.7589,-2.7645,-2.765,-2.7776,-2.7777,-2.7777,-2.7781,-2.7811,0,0,0,-2.7309,-2.7356,-2.7356,-2.7414,-2.7418,-2.7507,-2.7524,-2.7592,-2.7641,-2.7648,-2.7776,-2.7777,-2.7777,-2.778,-2.781,-2.7831,-2.7838,0,0,-2.7357,-2.7361,-2.7397,-2.74,-2.7483,-2.7492,-2.7577,-2.764,-2.7664,-2.7739,-2.7743,-2.7779,-2.7781,-2.7811,-2.7891,-2.7897,0,0,0,-2.7406,-2.7431,-2.7457,-2.7503,-2.7553,-2.7596,-2.7649,-2.7674,-2.7738,-2.7698,-2.78,-2.7802,-2.782,-2.7831,-2.7836,-2.7852,-2.7782,-2.7782,-2.7782,-2.7443,-2.7472,-2.7533,-2.7576,-2.7621,-2.7676,-2.7716,-2.7758,-2.7774,-2.7798,-2.7818,-2.7864,-2.7876,-2.788,-2.7897,-2.7835,-2.7835,-2.7835,-2.7835,-2.7514,-2.7553,-2.7576,-2.7643,-2.7675,-2.7733,-2.779,-2.78,-2.7859,-2.785,-2.7867,-2.7851,-2.7885,-2.7901,-2.7835,-2.7835,-2.7835,-2.7835,-2.7835,-2.7539,-2.7563,-2.7593,-2.7663,-2.7715,-2.776,-2.7816,-2.7843,-2.787,-2.7887,-2.7913,-2.7913,-2.7915,-2.7898,-2.7899,-2.7899,-2.7899,-2.7899,-2.7899,-2.7551,-2.7585,-2.7628,-2.7688,-2.7722,-2.7771,-2.7832,-2.7867,-2.7913,-2.7929,-2.7929,-2.7942,-2.7884,-2.7867,-2.7902,-2.7901,-2.7901,-2.7901,-2.79,-2.7607,-2.76,-2.7666,-2.7701,-2.7775,-2.7826,-2.7862,-2.7933,-2.7966,-2.7994,-2.8006,-2.7958,-2.7964,-2.796,-2.7946,-2.8,-2.8,-2.8,-2.8,-2.7626,-2.7634,-2.7708,-2.7762,-2.7819,-2.7859,-2.7936,-2.7985,-2.8035,-2.8059,-2.8056,-2.8041,-2.8037,-2.8045,-2.8039,-2.8027,-2.8099,-2.8099,-2.81,-2.7662,-2.7676,-2.7734,-2.7782,-2.7844,-2.7897,-2.797,-2.8033,-2.8089,-2.8104,-2.8077,-2.8073,-2.805,-2.8041,-2.805,-2.8041,-2.8019,0,0]},{"header":{"parameterUnit":"m.s-1","parameterCategory":1,"la1":30.2992,"la2":30.254,"lo1":-89.0895,"lo2":-89.0443,"dy":0.0025,"dx":0.0025,"nx":19,"ny":19,"refTime":"2026-05-20T21:00:00:Z","depth":0,"parameterNumber":3,"parameterNumberName":"V-component_of_WINDS"},"data":[0,0,0,3.0112,3.0112,3.0127,3.0127,3.0132,3.0132,0,0,0,0,0,0,0,0,0,0,0,3.0099,3.0099,3.0112,3.0112,3.0127,3.0127,3.0132,3.0132,0,0,0,0,0,0,0,0,0,0,0,3.0099,3.0099,3.0098,3.0112,3.0127,3.0127,3.0132,3.0126,0,0,0,0,0,0,0,0,0,0,3.0114,3.0092,3.0099,3.0098,3.0112,3.0127,3.0127,3.0126,3.0126,3.0119,0,3.011,0,3.0121,3.0131,3.0131,0,0,0,3.0119,3.0092,3.0104,3.0098,3.0112,3.0127,3.0122,3.0126,3.0127,3.0119,3.011,3.0111,3.0121,3.0131,3.0131,3.0068,3.0068,0,0,3.0118,3.0096,3.0104,3.0104,3.0101,3.0122,3.0123,3.0127,3.0115,3.011,3.0111,3.0121,3.0131,3.0131,3.0069,3.0068,0,0,0,3.0111,3.0095,3.0108,3.0104,3.0107,3.0122,3.0123,3.0115,3.0121,3.0111,3.0121,3.0131,3.0131,3.0069,3.0068,3.0018,0,0,0,3.0111,3.0092,3.0107,3.0094,3.0107,3.0111,3.0111,3.012,3.0122,3.0121,3.0131,3.0131,3.007,3.0069,3.0021,2.9998,0,0,0,3.0101,3.009,3.009,3.0093,3.0099,3.0112,3.0118,3.0121,3.0127,3.0131,3.0131,3.0071,3.0069,3.0024,3.0002,2.9976,0,0,0,3.0083,3.0043,3.0088,3.0047,3.0098,3.008,3.0118,3.0106,3.0103,3.0131,3.007,3.0069,3.0024,3.0005,2.9979,2.9951,2.9937,0,0,3.002,3.0035,3.0012,3.0054,3.0022,3.008,3.0041,3.0059,3.0079,3.0071,3.0069,3.002,3.0002,2.9977,2.9866,2.9855,0,0,0,2.9985,2.9969,2.9965,2.9962,2.9976,2.9986,3.0012,3.0019,3.0014,3.007,3.0004,2.9994,2.998,2.9968,2.9959,2.9949,3.0062,3.0062,3.0062,2.9864,2.9893,2.9859,2.989,2.9887,2.9916,2.9916,2.9931,2.996,2.9944,2.9942,2.9871,2.9856,2.9849,2.9838,2.9929,2.9929,2.9928,2.9928,2.9775,2.9757,2.9799,2.9781,2.9813,2.9798,2.9825,2.9847,2.9839,2.9874,2.9863,2.99,2.9836,2.9828,2.9925,2.9925,2.9926,2.9926,2.9926,2.9699,2.9696,2.9706,2.9707,2.9704,2.9738,2.9728,2.9757,2.9784,2.9773,2.9775,2.9776,2.9782,2.9772,2.9772,2.9772,2.9771,2.9771,2.9771,2.9617,2.963,2.9619,2.9632,2.9635,2.9643,2.9673,2.9677,2.969,2.9711,2.9711,2.9743,2.9824,2.9844,2.9767,2.9768,2.9769,2.9769,2.9769,2.9517,2.9545,2.9527,2.953,2.955,2.9546,2.9584,2.959,2.9598,2.9593,2.9628,2.9682,2.9699,2.9707,2.9724,2.9621,2.9621,2.9621,2.9621,2.9454,2.9465,2.9456,2.946,2.9467,2.95,2.9481,2.9505,2.9535,2.9542,2.9561,2.9586,2.9592,2.9605,2.9615,2.9631,2.9507,2.9507,2.9507,2.9395,2.9409,2.9387,2.9416,2.9434,2.9449,2.9433,2.9437,2.9476,2.9503,2.9548,2.9553,2.9594,2.9605,2.9633,2.9647,2.9678,0,0]}]]